Location: Canyam�s
(41.5996°N, 2.4450°E)
Time: 04:11:44
(UTC+00:00)

ATLAS CENTAUR R/B - Pass Details

Date: 06 June 2020
Orbit: 474 x 673 km, 64.7° (Epoch: 02 July)

Event Time Altitude Azimuth Distance (km) Brightness Sun altitude
Rises 22:04:45 0° 235° (SW) 2,879 4.9 -21.2°
Reaches altitude 10° 22:07:15 10° 245° (WSW) 1,944 4.1 -21.4°
Maximum altitude 22:11:13 33° 310° (NW) 987 3.1 -21.8°
Drops below altitude 10° 22:14:59 10° 15° (NNE) 1,839 4.7 -22.0°
Sets 22:17:18 0° 26° (NNE) 2,700 5.5 -22.2°
